TimeAKDT,TemperatureF,Dew PointF,Humidity,Sea Level PressureIn,VisibilityMPH,Wind Direction,Wind SpeedMPH,Gust SpeedMPH,PrecipitationIn,Events,Conditions,WindDirDegrees,DateUTC
12:35 AM,53.6,53.6,100,30.12,10.0,Calm,Calm,-,N/A,,Overcast,0,2013-06-29 08:35:00
12:53 AM,54.0,53.1,97,30.12,10.0,Calm,Calm,-,N/A,,Overcast,0,2013-06-29 08:53:00
1:09 AM,53.6,53.6,100,30.12,10.0,Calm,Calm,-,N/A,,Overcast,0,2013-06-29 09:09:00
1:23 AM,55.4,53.6,94,30.11,10.0,Calm,Calm,-,N/A,,Overcast,0,2013-06-29 09:23:00
1:53 AM,54.0,53.1,97,30.11,10.0,Calm,Calm,-,N/A,,Overcast,0,2013-06-29 09:53:00
2:00 AM,53.6,53.6,100,30.11,10.0,Calm,Calm,-,N/A,,Overcast,0,2013-06-29 10:00:00
2:38 AM,53.6,53.6,100,30.10,7.0,Calm,Calm,-,N/A,,Overcast,0,2013-06-29 10:38:00
2:53 AM,54.0,53.1,97,30.10,10.0,SSW,3.5,-,N/A,,Overcast,210,2013-06-29 10:53:00
3:09 AM,53.6,53.6,100,30.10,9.0,Calm,Calm,-,N/A,,Overcast,0,2013-06-29 11:09:00
3:29 AM,53.6,53.6,100,30.09,10.0,Calm,Calm,-,N/A,,Overcast,0,2013-06-29 11:29:00
3:53 AM,54.0,53.1,97,30.09,10.0,Calm,Calm,-,N/A,,Overcast,0,2013-06-29 11:53:00
4:06 AM,55.4,53.6,94,30.08,10.0,Variable,3.5,-,N/A,,Overcast,0,2013-06-29 12:06:00
4:50 AM,57.2,51.8,82,30.07,10.0,North,10.4,-,0.00,,Overcast,360,2013-06-29 12:50:00
4:53 AM,57.9,53.1,84,30.06,10.0,North,9.2,-,0.00,,Overcast,10,2013-06-29 12:53:00
5:46 AM,59.0,51.8,77,30.06,10.0,North,12.7,19.6,N/A,,Overcast,350,2013-06-29 13:46:00
5:53 AM,57.9,52.0,81,30.06,10.0,North,10.4,19.6,N/A,,Overcast,360,2013-06-29 13:53:00
6:53 AM,59.0,51.1,75,30.05,10.0,North,11.5,19.6,N/A,,Overcast,350,2013-06-29 14:53:00
7:53 AM,60.1,51.1,72,30.04,10.0,NNW,12.7,19.6,N/A,,Overcast,340,2013-06-29 15:53:00
8:53 AM,61.0,51.1,70,30.04,10.0,North,16.1,26.5,N/A,,Overcast,360,2013-06-29 16:53:00
9:53 AM,63.0,51.1,65,30.04,10.0,NNW,16.1,24.2,N/A,,Overcast,340,2013-06-29 17:53:00
10:53 AM,63.0,52.0,67,30.03,10.0,North,12.7,20.7,N/A,,Overcast,360,2013-06-29 18:53:00
11:53 AM,59.0,54.0,83,30.04,10.0,South,6.9,-,N/A,,Overcast,190,2013-06-29 19:53:00
12:53 PM,60.1,53.1,78,30.04,10.0,SSE,9.2,-,N/A,,Overcast,160,2013-06-29 20:53:00
1:53 PM,59.0,54.0,83,30.04,10.0,South,4.6,-,N/A,,Overcast,180,2013-06-29 21:53:00
2:53 PM,60.1,53.1,78,30.05,10.0,South,5.8,-,N/A,,Overcast,180,2013-06-29 22:53:00
3:53 PM,60.1,54.0,80,30.05,10.0,South,4.6,-,N/A,,Overcast,180,2013-06-29 23:53:00
4:53 PM,59.0,53.1,81,30.05,10.0,SSE,8.1,-,N/A,,Overcast,150,2013-06-30 00:53:00
5:53 PM,57.9,53.1,84,30.05,10.0,SSE,5.8,-,N/A,,Overcast,160,2013-06-30 01:53:00
6:53 PM,57.9,53.1,84,30.05,10.0,South,5.8,-,N/A,,Overcast,170,2013-06-30 02:53:00
7:53 PM,57.0,53.1,87,30.05,10.0,SSW,6.9,-,N/A,,Overcast,200,2013-06-30 03:53:00
8:53 PM,57.0,52.0,83,30.05,10.0,SSE,3.5,-,N/A,,Overcast,150,2013-06-30 04:53:00
9:53 PM,55.9,52.0,87,30.06,10.0,SSW,5.8,-,N/A,,Overcast,200,2013-06-30 05:53:00
10:53 PM,55.9,52.0,87,30.06,10.0,South,4.6,-,N/A,,Overcast,180,2013-06-30 06:53:00
11:07 PM,55.4,51.8,88,30.06,10.0,Calm,Calm,-,N/A,,Overcast,0,2013-06-30 07:07:00
11:53 PM,55.9,52.0,87,30.07,10.0,Calm,Calm,-,N/A,,Overcast,0,2013-06-30 07:53:00